Temperature
19 18 18 17 17 16 15 15 14 14 13 13 13 13 13 12 12 12 12 12 12 12 12 13 13 13 13 13 13 14 14 14 14 15 15 16 16 16 16 17 17 17 17
18 18 18 17 17 16 15 15 14 13 13 13 13 12 12 12 12 12 12 12 12 12 12 12 12 12 13 13 13 13 14 14 14 14 15 15 16 16 16 16 17 17 17
19 18 18 17 17 16 15 15 14 13 13 13 12 12 12 12 12 12 12 12 12 12 12 12 12 12 12 12 13 13 13 13 14 14 14 14 15 15 16 16 16 17 17
19 19 18 17 17 16 15 15 14 13 13 13 12 12 12 12 12 12 12 12 12 12 12 12 12 12 12 12 12 12 13 13 13 13 14 14 14 14 15 15 16 16 16
19 19 18 18 17 16 15 15 14 14 13 13 12 12 12 12 12 12 12 12 11 11 11 11 11 12 12 12 12 12 12 13 13 13 13 13 14 14 14 14 15 16 16
19 19 18 17 17 16 15 15 14 14 13 13 13 12 12 12 12 12 12 12 11 11 11 11 11 11 11 12 12 12 12 12 12 13 13 13 13 13 13 14 14 15 16
19 19 18 17 17 16 16 15 14 14 14 13 13 12 12 12 12 12 12 11 11 11 11 11 11 11 11 11 12 12 12 12 12 12 12 13 13 13 13 13 13 14 15
19 19 19 18 17 16 16 15 15 14 14 13 13 13 12 12 12 12 12 11 11 11 11 11 11 11 11 11 11 11 11 12 12 12 12 12 12 13 13 13 13 13 14
19 19 19 18 17 17 16 15 15 15 14 14 13 13 12 12 12 12 12 11 11 11 11 11 11 11 11 11 11 11 11 11 11 12 12 12 12 12 13 13 13 13 13
20 19 19 18 17 17 16 16 15 15 14 14 13 13 13 12 12 12 12 12 11 11 11 11 11 11 11 11 11 11 11 11 11 11 12 12 12 12 12 12 12 12 12
20 19 19 18 18 17 16 16 15 15 15 14 14 13 13 13 13 12 12 12 12 11 11 11 11 11 11 11 11 11 11 11 11 11 11 12 12 12 12 12 12 12 12
20 20 19 18 18 17 16 16 16 15 15 14 14 13 13 13 13 13 13 12 12 12 12 11 11 11 11 11 11 11 11 11 11 11 11 11 12 12 12 12 12 12 12
20 20 19 18 18 17 17 16 16 15 15 15 14 14 14 13 13 13 13 13 12 12 12 12 12 11 11 11 11 11 11 11 11 11 11 11 11 11 11 11 12 12 12
20 20 19 19 18 18 17 17 16 16 15 15 15 14 14 14 14 14 13 13 13 13 12 12 12 12 11 11 11 11 11 11 11 11 11 11 11 11 11 11 11 11 11
21 20 20 19 19 18 17 17 16 16 16 15 15 15 15 14 14 14 14 13 13 13 13 12 12 12 12 12 11 11 11 11 11 11 11 11 11 11 11 11 11 11 11
21 21 20 19 19 18 18 17 17 16 16 16 16 15 15 15 15 14 14 14 14 13 13 13 13 12 12 12 12 12 11 11 11 11 11 11 11 11 11 11 11 11 11
21 21 20 20 19 18 18 17 17 17 16 16 16 16 15 15 15 15 14 14 14 14 13 13 13 13 13 12 12 12 12 12 11 11 11 11 11 11 11 11 11 11 11
21 21 20 20 19 19 18 17 17 17 17 16 16 16 16 15 15 15 15 14 14 14 14 13 13 13 13 13 12 12 12 12 12 11 11 11 11 11 11 11 11 11 11
21 21 20 20 19 19 18 18 17 17 17 17 16 16 16 16 15 15 15 15 14 14 14 14 13 13 13 13 13 12 12 12 12 12 11 11 11 11 11 11 11 11 11
21 21 20 20 19 19 18 18 17 17 17 17 16 16 16 16 15 15 15 15 14 14 14 14 14 14 13 13 13 13 12 12 12 12 11 11 11 11 11 11 11 11 11
21 20 20 19 19 18 18 18 17 17 17 17 16 16 16 16 15 15 15 15 14 14 14 14 14 14 14 13 13 13 13 12 12 12 12 11 11 11 11 11 11 11 11
20 20 20 19 19 18 18 18 17 17 17 17 16 16 16 15 15 15 15 14 14 14 14 14 14 14 14 13 13 13 13 13 12 12 12 11 11 11 11 11 11 11 11
20 20 19 19 18 18 18 18 17 17 17 16 16 16 16 15 15 15 15 14 14 14 13 13 13 13 13 13 13 13 13 13 12 12 12 11 11 11 11 11 11 11 11
20 20 19 19 18 18 18 17 17 17 16 16 16 16 15 15 15 14 14 13 13 13 13 13 13 13 13 13 13 13 13 12 12 12 12 11 11 11 11 11 11 11 10
20 19 19 19 18 18 18 17 17 17 16 16 16 15 15 14 14 13 13 12 12 12 12 12 12 12 12 12 12 12 12 12 12 12 12 11 11 11 11 11 11 11 10
20 19 19 18 18 18 17 17 17 16 16 16 15 15 14 13 13 12 12 11 11 11 11 11 11 11 11 11 11 12 12 12 12 11 11 11 11 10 10 10 10 10 10
Wind_Speed
5 5 6 6 4 3 3 2 2 1 1 1 2 2 2 3 3 3 5 6 6 6 4 3 3 3 2 2 2 1 1 1 1 0 1 2 3 4 4 3 3 3 4
5 6 6 6 5 4 4 3 3 2 1 1 1 1 1 2 3 3 4 6 6 6 4 3 3 3 3 3 3 2 1 1 0 1 0 2 2 2 2 3 3 4 3
10 9 8 7 5 5 6 5 5 3 2 1 1 1 2 3 3 4 4 5 6 6 4 4 3 3 2 2 3 2 1 1 1 0 1 1 1 2 1 2 2 2 3
8 8 8 8 7 7 6 5 5 4 2 1 0 1 0 1 2 3 4 5 5 5 5 4 3 3 2 2 3 2 1 0 1 1 1 1 1 1 1 2 1 2 3
10 10 10 10 8 6 6 5 4 4 3 2 1 1 1 2 2 3 4 5 5 5 5 4 3 3 3 3 2 2 1 0 1 1 0 0 0 1 1 2 2 2 2
9 9 8 6 6 5 5 5 5 5 3 3 2 2 2 2 3 3 4 4 4 4 5 4 3 3 3 3 2 2 1 1 0 1 1 1 1 1 2 2 2 2 2
9 9 9 8 8 7 7 6 6 6 5 4 3 3 4 3 3 3 3 3 3 3 5 4 4 3 3 3 2 2 2 2 1 1 1 2 2 1 2 2 1 2 2
9 10 10 10 9 9 8 7 7 7 5 5 5 4 3 3 3 3 3 3 3 4 4 4 4 4 3 3 2 2 2 2 2 2 1 1 2 2 2 2 2 1 2
10 10 9 9 9 9 9 8 8 7 6 6 5 4 4 4 4 3 3 3 3 3 4 3 3 4 4 3 2 2 2 2 2 2 2 1 2 2 3 3 3 3 2
9 9 9 9 9 8 7 6 7 8 6 5 5 4 4 4 4 3 3 3 4 3 3 4 4 4 4 3 2 2 2 2 3 2 2 2 2 2 2 2 3 3 4
10 10 9 9 8 7 6 6 7 6 6 5 5 4 4 3 3 3 3 3 3 3 3 3 3 3 4 3 3 3 3 3 3 3 3 3 3 2 2 2 2 3 3
9 9 9 7 7 7 7 7 7 7 7 5 5 4 4 3 3 4 4 3 3 3 3 3 3 4 3 3 3 4 3 3 3 4 3 4 3 3 3 2 3 3 4
8 7 7 8 8 8 7 7 7 7 6 5 5 4 4 4 4 4 4 3 3 3 3 3 3 4 4 4 3 3 3 3 3 4 3 4 4 4 3 3 3 3 4
8 8 8 9 9 8 8 7 7 7 6 5 5 6 6 6 5 5 4 4 3 3 4 4 4 4 4 4 4 3 3 4 4 4 4 4 4 5 4 4 4 4 4
8 9 10 9 8 8 7 7 7 6 6 6 6 7 6 5 5 5 4 4 4 4 4 4 5 4 4 4 4 3 3 4 4 4 4 5 5 6 5 4 4 3 4
10 10 10 9 9 10 9 8 8 7 6 7 7 7 5 5 5 5 5 4 5 5 4 5 5 6 5 7 7 4 3 3 4 5 5 5 5 6 7 7 6 5 5
11 11 11 11 11 10 10 10 9 6 7 7 7 6 6 6 6 5 5 6 6 5 5 6 5 6 8 10 9 7 3 3 4 4 4 4 4 5 4 6 7 7 8
10 10 10 9 9 8 8 7 6 6 7 7 6 6 6 6 6 5 6 6 5 5 6 6 6 6 9 10 9 7 4 4 4 4 5 5 5 5 5 4 5 6 6
10 10 9 8 8 8 8 7 6 6 6 7 7 6 6 6 6 7 7 6 5 6 6 6 6 7 9 11 9 7 3 3 5 5 4 5 5 8 7 4 6 7 6
7 7 7 6 7 7 8 9 7 7 7 7 7 5 5 6 7 7 6 4 4 6 6 6 6 7 8 11 10 7 3 4 5 4 4 6 6 8 7 4 5 7 7
7 8 8 7 7 8 9 8 7 7 7 5 3 3 3 4 5 4 3 4 4 4 5 6 6 6 8 10 10 8 4 4 4 4 4 4 7 8 8 7 5 8 8
8 8 8 6 5 8 9 8 7 6 4 3 3 2 1 1 1 2 3 2 2 4 5 5 6 5 5 6 7 8 7 6 4 5 4 4 7 8 9 7 7 9 8
9 8 9 8 5 6 8 9 6 5 5 4 3 1 1 1 1 0 2 2 2 2 3 3 5 6 4 5 7 7 7 6 5 4 5 6 7 8 7 8 9 7 4
9 8 10 9 6 6 6 6 5 6 6 5 3 2 2 2 2 2 1 1 2 2 2 3 4 5 5 5 4 3 3 3 3 2 2 4 5 4 5 6 5 4 3
8 9 10 10 9 7 6 5 6 7 7 6 4 3 3 2 2 2 2 2 2 2 2 2 3 3 5 6 6 2 1 0 0 1 2 3 3 5 5 5 5 4 4
10 10 10 10 9 8 7 6 6 8 8 6 4 3 3 2 2 2 3 5 4 7 8 8 5 3 4 7 6 5 5 4 5 4 3 3 4 4 5 5 6 5 5
Wind_Direction
219 190 180 171 163 162 175 200 224 261 360 10 355 352 341 334 342 343 352 356 356 355 355 354 355 358 360 340 330 316 314 290 258 273 306 294 241 232 230 224 220 220 220
190 187 181 177 179 185 199 218 234 246 247 239 259 259 284 302 301 317 345 357 357 355 360 1 353 351 352 358 360 356 345 317 334 140 107 321 329 283 240 223 220 222 211
195 193 188 193 193 205 211 217 227 236 245 250 23 17 13 355 352 345 341 340 346 352 358 359 352 349 352 345 338 342 11 318 312 246 162 163 237 302 315 255 232 213 204
191 191 192 197 206 216 215 221 226 234 242 210 145 99 50 319 297 303 312 323 342 350 359 1 357 351 349 341 328 8 337 252 296 309 284 224 186 189 334 331 307 257 225
191 194 199 202 209 212 211 218 226 239 240 224 207 187 248 263 293 309 327 338 340 348 356 356 355 352 348 342 342 354 8 321 232 250 286 286 310 199 197 284 311 313 272
194 200 203 201 214 217 217 218 225 243 240 232 227 218 244 270 305 322 332 334 331 333 345 349 350 346 347 340 335 345 1 1 278 245 225 208 192 191 197 230 266 280 279
188 193 198 204 213 217 219 217 222 242 243 237 239 237 242 246 258 278 298 313 324 321 327 341 338 338 336 337 345 359 352 346 336 286 245 237 235 214 192 201 236 266 290
192 198 203 204 211 217 218 216 222 238 241 237 243 246 242 238 250 259 263 276 279 286 306 326 333 335 339 353 3 357 336 341 327 318 293 267 261 233 211 197 187 245 279
200 204 205 207 211 216 218 215 219 233 237 233 237 246 247 245 253 264 266 272 279 290 312 328 340 341 345 354 0 345 329 328 321 310 310 293 278 263 237 222 205 197 235
207 209 208 210 214 218 222 217 218 227 232 228 230 236 242 247 257 266 275 280 292 304 321 332 338 342 349 353 356 336 329 337 322 308 318 312 292 287 260 236 227 214 212
208 208 210 212 212 216 216 218 220 224 229 226 227 239 252 257 261 261 269 278 289 300 311 319 327 333 336 338 341 329 334 339 329 328 321 311 302 294 285 262 240 231 222
210 207 205 201 205 213 216 219 219 221 225 219 217 229 245 254 259 265 274 277 283 289 292 306 316 318 321 325 325 322 331 331 323 319 320 312 315 302 288 274 258 245 232
210 202 197 200 208 212 215 219 220 222 221 205 209 226 239 244 254 263 273 273 275 286 295 297 299 303 306 309 306 297 302 305 301 301 300 298 302 293 284 277 267 260 253
207 200 203 209 210 210 212 217 225 221 211 199 207 224 235 238 247 257 264 264 266 277 286 288 287 288 291 291 290 288 292 297 296 292 286 284 277 271 275 275 268 260 256
208 205 206 209 208 210 214 217 224 216 201 198 213 229 236 237 245 253 258 261 265 268 274 285 293 293 286 277 273 270 274 284 296 299 292 286 286 280 269 264 262 256 254
212 209 208 205 206 208 210 212 218 212 194 204 222 230 230 236 242 248 254 261 266 271 273 275 282 290 286 293 293 278 259 273 282 292 298 298 298 309 311 307 295 275 260
209 206 205 204 206 206 202 205 211 198 193 212 226 227 227 237 244 248 253 257 261 264 269 271 272 277 282 290 295 289 262 261 270 276 289 302 306 314 301 304 309 301 289
205 205 203 203 205 199 195 197 188 186 199 215 227 229 226 239 247 246 251 255 254 256 262 268 270 273 280 287 286 285 272 262 269 268 269 277 293 297 293 290 297 290 284
198 198 195 192 188 187 183 170 176 184 198 218 229 229 223 234 243 247 253 252 249 256 254 259 265 268 278 285 284 277 250 263 274 273 267 265 278 296 302 295 294 295 289
186 181 171 164 172 181 162 162 176 182 207 221 228 228 220 226 240 249 256 251 242 255 265 267 261 258 268 281 283 274 227 255 273 282 277 273 277 293 301 285 284 292 292
171 158 151 159 174 161 152 163 172 196 214 211 206 210 217 226 240 256 262 265 264 271 275 278 278 268 265 279 282 272 221 230 257 274 281 279 291 298 302 297 272 276 286
155 151 150 156 153 151 154 162 183 200 178 160 166 189 220 241 246 262 287 288 283 288 293 296 300 290 278 272 281 277 251 223 222 251 263 277 298 304 307 303 293 296 298
158 153 148 142 139 153 158 166 183 163 145 140 149 150 93 35 359 304 310 323 328 311 306 307 305 308 308 298 293 290 280 251 224 242 261 287 308 318 318 315 317 318 306
161 152 146 146 151 155 156 163 154 147 141 141 141 122 99 60 40 43 43 37 3 344 333 327 314 312 318 318 316 304 301 294 260 274 321 337 342 339 323 324 328 325 301
163 160 159 158 158 151 147 147 146 141 135 131 124 111 98 85 56 50 61 67 49 66 35 330 312 322 324 322 320 312 310 267 171 92 48 26 8 1 354 345 336 332 331
162 160 158 155 154 149 145 145 145 141 136 131 126 118 106 87 76 72 52 43 54 49 46 38 31 359 347 343 6 34 43 54 89 88 57 30 13 358 348 343 340 337 337
Height
1518 1520 1521 1522 1523 1523 1523 1522 1521 1519 1518 1516 1515 1513 1512 1511 1510 1508 1507 1506 1504 1503 1502 1500 1499 1498 1498 1497 1497 1497 1497 1498 1499 1500 1500 1502 1503 1504 1506 1507 1510 1512 1515
1515 1517 1519 1520 1521 1522 1522 1521 1520 1519 1517 1515 1514 1513 1512 1510 1509 1508 1507 1505 1504 1502 1501 1500 1498 1497 1497 1496 1495 1495 1495 1496 1497 1498 1498 1499 1501 1501 1502 1504 1506 1509 1511
1512 1514 1516 1518 1520 1520 1520 1520 1519 1518 1516 1515 1514 1513 1512 1510 1509 1508 1506 1505 1503 1502 1501 1499 1498 1497 1496 1495 1494 1494 1494 1494 1495 1496 1497 1497 1498 1499 1500 1501 1503 1505 1508
1510 1512 1514 1516 1518 1519 1519 1519 1518 1517 1516 1515 1514 1513 1511 1510 1509 1507 1506 1504 1503 1502 1500 1499 1497 1496 1495 1494 1494 1493 1493 1493 1494 1494 1495 1497 1497 1498 1498 1499 1500 1502 1504
1507 1510 1512 1514 1516 1518 1518 1518 1517 1517 1516 1515 1514 1512 1511 1510 1508 1507 1505 1504 1503 1501 1500 1498 1497 1495 1494 1494 1493 1492 1492 1492 1492 1493 1494 1495 1496 1496 1497 1497 1498 1500 1501
1505 1508 1511 1513 1515 1516 1517 1517 1516 1516 1515 1514 1513 1512 1511 1509 1508 1507 1505 1504 1502 1501 1499 1497 1496 1495 1494 1493 1492 1492 1491 1491 1491 1491 1492 1493 1494 1494 1495 1496 1496 1497 1498
1502 1505 1508 1510 1512 1514 1515 1515 1515 1515 1514 1513 1512 1511 1510 1509 1508 1506 1505 1503 1501 1500 1498 1497 1496 1494 1493 1492 1491 1491 1490 1490 1490 1490 1490 1491 1492 1492 1493 1494 1494 1494 1495
1499 1502 1505 1508 1510 1512 1513 1513 1513 1513 1513 1512 1511 1510 1509 1508 1507 1506 1504 1503 1501 1499 1498 1496 1495 1494 1492 1491 1490 1490 1489 1489 1488 1488 1489 1489 1489 1490 1491 1492 1492 1492 1493
1496 1500 1503 1506 1508 1509 1511 1511 1512 1512 1511 1511 1510 1509 1508 1507 1506 1505 1504 1502 1501 1499 1497 1496 1494 1493 1491 1490 1489 1488 1488 1487 1487 1487 1487 1487 1487 1487 1488 1489 1490 1491 1490
1494 1497 1500 1503 1505 1507 1509 1509 1510 1510 1510 1509 1509 1508 1507 1506 1505 1504 1502 1501 1500 1498 1497 1495 1493 1492 1491 1489 1488 1487 1486 1486 1485 1485 1485 1485 1485 1485 1485 1486 1486 1487 1488
1491 1494 1497 1500 1503 1505 1506 1507 1508 1508 1508 1508 1507 1507 1506 1505 1504 1503 1501 1500 1498 1497 1496 1494 1493 1491 1490 1489 1488 1486 1485 1484 1484 1483 1483 1482 1482 1482 1482 1483 1483 1484 1484
1489 1492 1495 1497 1500 1502 1503 1505 1505 1506 1506 1506 1506 1505 1505 1504 1503 1501 1500 1499 1497 1496 1495 1493 1492 1490 1489 1488 1487 1485 1484 1483 1482 1481 1481 1480 1480 1480 1480 1480 1480 1480 1481
1486 1489 1491 1494 1496 1499 1501 1502 1503 1504 1504 1504 1504 1504 1503 1502 1501 1500 1499 1498 1496 1495 1494 1492 1491 1490 1488 1487 1486 1484 1483 1482 1481 1480 1479 1478 1478 1477 1477 1477 1477 1477 1477
1482 1485 1487 1490 1493 1495 1497 1499 1500 1501 1502 1502 1502 1502 1502 1501 1500 1499 1498 1497 1496 1494 1493 1492 1490 1489 1488 1486 1485 1483 1482 1480 1479 1478 1477 1476 1475 1475 1474 1474 1474 1474 1474
1479 1481 1483 1486 1489 1492 1494 1496 1497 1499 1499 1500 1500 1500 1500 1500 1499 1498 1497 1496 1495 1494 1492 1491 1490 1488 1487 1485 1484 1482 1481 1479 1478 1477 1475 1474 1473 1473 1472 1471 1471 1471 1470
1475 1477 1480 1483 1485 1488 1490 1493 1494 1496 1497 1497 1498 1498 1498 1498 1497 1497 1496 1495 1494 1493 1492 1490 1489 1487 1486 1484 1482 1481 1479 1478 1476 1475 1474 1473 1471 1470 1469 1469 1468 1468 1467
1470 1473 1476 1479 1482 1484 1487 1489 1491 1493 1494 1495 1496 1496 1496 1496 1496 1495 1494 1493 1493 1491 1490 1489 1487 1486 1484 1483 1481 1479 1478 1476 1475 1473 1472 1471 1469 1468 1467 1466 1465 1464 1463
1466 1469 1472 1475 1478 1481 1484 1486 1489 1490 1491 1492 1493 1494 1494 1494 1493 1493 1492 1491 1490 1489 1488 1487 1485 1484 1483 1481 1479 1478 1476 1475 1473 1472 1470 1468 1467 1466 1464 1463 1462 1461 1460
1463 1466 1469 1472 1475 1478 1481 1483 1485 1487 1488 1489 1490 1491 1491 1491 1491 1490 1489 1488 1487 1486 1485 1484 1483 1481 1480 1479 1477 1476 1474 1473 1471 1470 1468 1466 1465 1463 1462 1460 1459 1457 1457
1460 1463 1466 1469 1471 1474 1477 1480 1482 1484 1485 1487 1487 1488 1488 1488 1487 1487 1486 1485 1484 1483 1482 1480 1479 1478 1477 1476 1475 1473 1471 1470 1469 1467 1466 1464 1463 1461 1460 1458 1456 1454 1453
1457 1460 1462 1465 1468 1471 1474 1476 1479 1481 1482 1484 1484 1485 1485 1484 1484 1483 1482 1481 1480 1479 1478 1476 1475 1474 1473 1472 1471 1470 1468 1467 1466 1465 1464 1462 1461 1459 1458 1456 1454 1452 1451
1453 1456 1459 1462 1466 1468 1471 1473 1476 1478 1479 1480 1481 1481 1481 1481 1480 1479 1478 1477 1476 1474 1473 1472 1471 1470 1469 1468 1467 1466 1465 1464 1463 1462 1461 1460 1458 1457 1455 1453 1452 1450 1448
1451 1454 1457 1460 1463 1465 1468 1470 1473 1474 1476 1477 1477 1478 1477 1477 1476 1475 1474 1473 1471 1470 1469 1467 1466 1466 1465 1464 1463 1462 1461 1460 1459 1459 1458 1456 1455 1454 1452 1451 1449 1447 1446
1447 1450 1453 1456 1459 1462 1465 1467 1469 1471 1472 1473 1474 1474 1474 1473 1472 1471 1470 1469 1467 1466 1465 1463 1462 1461 1461 1460 1459 1459 1458 1457 1456 1455 1454 1453 1452 1451 1450 1448 1447 1445 1443
1444 1447 1450 1453 1456 1459 1461 1464 1466 1467 1469 1469 1470 1470 1470 1470 1469 1468 1467 1465 1464 1463 1462 1460 1459 1458 1457 1456 1456 1455 1454 1453 1453 1452 1451 1450 1449 1448 1447 1446 1444 1443 1441
1440 1443 1446 1449 1452 1455 1458 1460 1462 1464 1465 1466 1466 1467 1467 1466 1466 1465 1464 1463 1462 1461 1460 1458 1457 1455 1455 1453 1453 1452 1451 1450 1449 1449 1448 1447 1446 1445 1444 1442 1441 1440 1438